Weather History for Bishop, CA

Change the Weather History Date:

Tuesday, December 11, 2012

  Actual Average Record
Temperature  
Mean Temperature 41 °F 38 °F  
Max Temperature 59 °F 53 °F 78 °F (1958)
Min Temperature 23 °F 22 °F 8 °F (1971)
Degree Days  
Heating Degree Days 24 27  
Month to date heating degree days 217 290  
Since 1 July heating degree days 1038 1191  
Cooling Degree Days 0 0  
Month to date cooling degree days 0 0  
Year to date cooling degree days 1161 1104  
Moisture  
Dew Point 12 °F    
Average Humidity 38    
Maximum Humidity 60    
Minimum Humidity 15    
Precipitation  
Precipitation 0.00 in 0.02 in 0.37 in (1945)
Month to date precipitation 0.02 0.21  
Year to date precipitation 2.73 4.59  
Snow  
Snow 0.00 in 0.10 in T in (1995)
Month to date snowfall 0.0 0.4  
Since 1 July snowfall 0.0 0.8  
Snow Depth 0.00 in    
Sea Level Pressure  
Sea Level Pressure 29.96 in    
Wind  
Wind Speed 4 mph (WNW)    
Max Wind Speed 14 mph    
Max Gust Speed 20 mph    
Visibility 10 miles    
Events      
T = Trace of Precipitation, MM = Missing Value Source: NWS Daily Summary

Daily Weather History Graph

Daily Weather History Graph

Search for Another Location

Airport:

Trip Planner

Search our weather history database for the weather conditions in past years. The results will help you decide how hot, cold, wet, or windy it might be!

Date:

Astronomy

Dec. 11, 2012 Rise Set
Actual Time 6:58 AM PST 4:35 PM PST
Civil Twilight 6:28 AM PST 5:05 PM PST
Nautical Twilight 5:56 AM PST 5:37 PM PST
Astronomical Twilight 5:24 AM PST 6:09 PM PST
Moon 4:59 AM PST (12/11) 3:18 PM PST (12/11)
Length of Visible Light 10h 36m
Length of Day
9h 37m
Waning Crescent, 4% of the Moon is Illuminated
Dec 11
Waning Crescent
Dec 13
New
Dec 19
First Quarter
Dec 28
Full
Jan 4
Last Quarter

Hourly Weather History & Observations

Time (PST) Temp. Windchill Dew Point Humidity Pressure Visibility Wind Dir Wind Speed Gust Speed Precip Events Conditions
12:56 AM 39.9 °F - 10.9 °F 31% 30.08 in 10.0 mi Calm Calm - N/A   Clear
1:56 AM 37.0 °F 32.4 °F 9.0 °F 31% 30.08 in 10.0 mi NNW 5.8 mph - N/A   Clear
2:56 AM 30.0 °F 26.5 °F 10.9 °F 45% 30.09 in 10.0 mi NE 3.5 mph - N/A   Clear
3:56 AM 30.9 °F - 10.9 °F 43% 30.09 in 10.0 mi Calm Calm - N/A   Clear
4:56 AM 26.1 °F - 10.0 °F 51% 30.10 in 10.0 mi Calm Calm - N/A   Clear
5:56 AM 24.1 °F 17.0 °F 10.0 °F 55% 30.10 in 10.0 mi NW 5.8 mph - N/A   Clear
6:56 AM 25.0 °F 17.1 °F 12.0 °F 58% 30.11 in 10.0 mi WNW 6.9 mph - N/A   Clear
7:56 AM 30.0 °F 26.5 °F 12.9 °F 49% 30.09 in 10.0 mi West 3.5 mph - N/A   Clear
8:56 AM 41.0 °F 39.0 °F 14.0 °F 33% 30.11 in 10.0 mi NNE 3.5 mph - N/A   Clear
9:56 AM 48.0 °F - 12.0 °F 24% 30.05 in 10.0 mi Calm Calm - N/A   Clear
10:56 AM 51.1 °F - 12.0 °F 21% 30.01 in 10.0 mi Calm Calm - N/A   Clear
11:56 AM 54.0 °F - 10.9 °F 18% 29.97 in 10.0 mi Variable 3.5 mph - N/A   Clear
12:56 PM 55.0 °F - 10.9 °F 17% 29.92 in 10.0 mi South 5.8 mph - N/A   Clear
1:56 PM 57.9 °F - 10.9 °F 16% 29.88 in 10.0 mi South 9.2 mph - N/A   Clear
2:56 PM 59.0 °F - 12.9 °F 16% 29.88 in 10.0 mi South 6.9 mph 17.3 mph N/A   Clear
3:56 PM 57.0 °F - 14.0 °F 18% 29.86 in 10.0 mi SSE 12.7 mph - N/A   Clear
4:56 PM 51.1 °F - 14.0 °F 23% 29.87 in 10.0 mi SSE 5.8 mph - N/A   Clear
5:56 PM 44.1 °F 40.8 °F 14.0 °F 30% 29.89 in 10.0 mi South 5.8 mph - N/A   Clear
6:56 PM 46.0 °F - 16.0 °F 30% 29.86 in 10.0 mi Calm Calm - N/A   Clear
7:56 PM 35.1 °F 32.2 °F 14.0 °F 42% 29.86 in 10.0 mi North 3.5 mph - N/A   Clear
8:56 PM 33.1 °F - 12.9 °F 43% 29.82 in 10.0 mi Calm Calm - N/A   Clear
9:56 PM 30.9 °F 23.5 °F 12.9 °F 47% 29.80 in 10.0 mi North 8.1 mph - N/A   Clear
10:56 PM 28.9 °F 23.9 °F 12.9 °F 51% 29.78 in 10.0 mi NNW 4.6 mph - N/A   Clear
11:56 PM 25.0 °F 15.5 °F 12.9 °F 60% 29.77 in 10.0 mi WSW 9.2 mph - N/A   Clear